Monroe, WI

1:22 AM CDT on June 23, 2017 (GMT -0500)
Monroe Municipal

Weather History for KEFT - August, 2013

Change the Weather History Date:

Thursday, August 1, 2013

  Actual Average Record
Temperature  
Mean Temperature 70 °F -  
Max Temperature 79 °F 86 °F 91 °F (2002)
Min Temperature 61 °F 69 °F 51 °F (1998)
Cooling Degree Days 5    
Growing Degree Days 20 (Base 50)    
Moisture  
Dew Point 56 °F    
Average Humidity 66    
Maximum Humidity 100    
Minimum Humidity 33    
Precipitation  
Precipitation 0.00 in - - ()
Sea Level Pressure  
Sea Level Pressure 29.99 in    
Wind  
Wind Speed 9 mph (West)    
Max Wind Speed 17 mph    
Max Gust Speed 23 mph    
Visibility 10 miles    
Events Rain , Thunderstorm    
Averages and records for this station are not official NWS values.
T = Trace of Precipitation, MM = Missing Value Source: NWS Daily Summary

Daily Weather History Graph

Daily Weather History Graph

Search for Another Location

Airport or City:

Trip Planner

Search our weather history database for the weather conditions in past years. The results will help you decide how hot, cold, wet, or windy it might be!

Date:

Astronomy

Aug. 01, 2013 Rise Set
Actual Time 5:50 AM CDT 8:18 PM CDT
Civil Twilight 5:18 AM CDT 8:49 PM CDT
Nautical Twilight 4:38 AM CDT 9:29 PM CDT
Astronomical Twilight 3:54 AM CDT 10:13 PM CDT
Moon 1:26 AM CDT (8/1) 4:27 PM CDT (8/1)
Length of Visible Light 15h 31m
Length of Day
14h 27m
Waning Crescent, 23% of the Moon is Illuminated
Aug 1
Waning Crescent
Aug 6
New
Aug 14
First Quarter
Aug 20
Full
Aug 28
Last Quarter

Hourly Weather History & Observations

Time (CDT) Temp. Dew Point Humidity Pressure Visibility Wind Dir Wind Speed Gust Speed Precip Events Conditions
12:15 AM 64.2 °F 64.2 °F 100% 30.01 in 10.0 mi SW 5.8 mph - N/A   Clear
12:35 AM 63.5 °F 63.5 °F 100% 30.01 in 10.0 mi SW 6.9 mph - N/A   Clear
12:55 AM 63.9 °F 63.9 °F 100% 30.00 in 10.0 mi SW 6.9 mph - N/A   Clear
1:15 AM 64.0 °F 64.0 °F 100% 30.00 in 10.0 mi SW 8.1 mph - N/A   Clear
1:35 AM 64.0 °F 64.0 °F 100% 30.00 in 10.0 mi SW 8.1 mph - N/A   Clear
1:55 AM 64.9 °F 64.9 °F 100% 30.00 in 10.0 mi WSW 10.4 mph - N/A   Clear
2:15 AM 64.8 °F 64.8 °F 100% 30.00 in 10.0 mi West 10.4 mph - N/A   Clear
2:35 AM 64.4 °F 64.4 °F 100% 30.00 in 10.0 mi West 10.4 mph - N/A   Clear
2:55 AM 64.6 °F 64.6 °F 100% 30.00 in 10.0 mi WNW 10.4 mph - N/A   Clear
3:15 AM 64.4 °F 64.4 °F 100% 29.99 in 10.0 mi West 11.5 mph - N/A   Clear
3:35 AM 63.5 °F 63.5 °F 100% 29.99 in 10.0 mi WNW 9.2 mph - N/A   Clear
3:55 AM 63.1 °F 63.1 °F 100% 29.99 in 10.0 mi WNW 10.4 mph - N/A   Clear
4:15 AM 62.8 °F 62.8 °F 100% 29.99 in 10.0 mi West 11.5 mph - N/A   Clear
4:35 AM 62.6 °F 62.6 °F 100% 29.99 in 10.0 mi West 9.2 mph - N/A   Clear
4:55 AM 62.1 °F 62.1 °F 100% 29.99 in 10.0 mi West 11.5 mph - N/A   Clear
5:15 AM 61.7 °F 61.7 °F 100% 30.00 in 10.0 mi West 10.4 mph - N/A   Clear
5:35 AM 61.3 °F 61.3 °F 100% 30.00 in 10.0 mi West 8.1 mph - N/A   Clear
5:55 AM 61.7 °F 61.7 °F 100% 30.00 in 10.0 mi West 9.2 mph - N/A   Clear
6:15 AM 61.2 °F 61.2 °F 100% 30.00 in 10.0 mi West 9.2 mph - N/A   Clear
6:35 AM 62.1 °F 61.7 °F 99% 30.00 in 10.0 mi West 10.4 mph - N/A   Clear
6:55 AM 62.6 °F 61.7 °F 97% 30.00 in 10.0 mi WNW 9.2 mph - N/A   Clear
7:15 AM 63.5 °F 61.0 °F 91% 30.00 in 10.0 mi West 9.2 mph - N/A   Clear
7:35 AM 63.9 °F 60.8 °F 90% 30.00 in 10.0 mi West 9.2 mph - N/A   Clear
7:55 AM 64.9 °F 56.7 °F 74% 30.01 in 10.0 mi WNW 11.5 mph 16.1 mph N/A   Clear
8:15 AM 65.3 °F 56.5 °F 73% 30.01 in 10.0 mi WNW 9.2 mph - N/A   Clear
8:35 AM 66.6 °F 56.1 °F 69% 30.01 in 10.0 mi WNW 11.5 mph - N/A   Clear
8:55 AM 67.6 °F 55.6 °F 65% 30.02 in 10.0 mi WNW 12.7 mph 16.1 mph N/A   Clear
9:15 AM 68.9 °F 55.8 °F 63% 30.02 in 10.0 mi WNW 10.4 mph - N/A   Clear
9:35 AM 70.0 °F 56.3 °F 62% 30.03 in 10.0 mi WNW 9.2 mph - N/A   Clear
9:55 AM 70.5 °F 55.4 °F 59% 30.03 in 10.0 mi NW 11.5 mph 17.3 mph N/A   Clear
10:15 AM 71.1 °F 55.6 °F 58% 30.03 in 10.0 mi NNW 9.2 mph 16.1 mph N/A   Clear
10:35 AM 71.8 °F 52.3 °F 50% 30.03 in 10.0 mi NW 10.4 mph 18.4 mph N/A   Clear
10:55 AM 72.9 °F 53.4 °F 50% 30.03 in 10.0 mi WNW 10.4 mph 19.6 mph N/A   Scattered Clouds
11:15 AM 74.1 °F 52.2 °F 46% 30.04 in 10.0 mi NW 8.1 mph 16.1 mph N/A   Scattered Clouds
11:35 AM 72.9 °F 50.4 °F 45% 30.04 in 10.0 mi NW 10.4 mph 21.9 mph N/A   Mostly Cloudy
11:55 AM 74.5 °F 48.0 °F 39% 30.03 in 10.0 mi NW 16.1 mph 21.9 mph N/A   Scattered Clouds
12:15 PM 74.5 °F 48.7 °F 40% 30.04 in 10.0 mi NW 13.8 mph 19.6 mph N/A   Scattered Clouds
12:35 PM 74.7 °F 49.3 °F 41% 30.03 in 10.0 mi NNW 6.9 mph - N/A   Clear
12:55 PM 75.9 °F 49.8 °F 40% 30.03 in 10.0 mi NNW 9.2 mph - N/A   Clear
1:15 PM 76.1 °F 47.8 °F 37% 30.02 in 10.0 mi NW 9.2 mph 19.6 mph N/A   Scattered Clouds
1:35 PM 76.1 °F 48.7 °F 38% 30.02 in 10.0 mi WNW 17.3 mph 23.0 mph N/A   Clear
1:55 PM 76.3 °F 48.4 °F 37% 30.02 in 10.0 mi NW 10.4 mph 19.6 mph N/A   Scattered Clouds
2:15 PM 77.2 °F 50.2 °F 39% 30.02 in 10.0 mi NW 13.8 mph 17.3 mph N/A   Scattered Clouds
2:35 PM 77.4 °F 49.5 °F 37% 30.02 in 10.0 mi NW 10.4 mph 20.7 mph N/A   Clear
2:55 PM 77.4 °F 49.8 °F 38% 30.01 in 10.0 mi NNW 8.1 mph - N/A   Clear
3:15 PM 78.1 °F 50.0 °F 37% 30.01 in 10.0 mi WNW 11.5 mph 16.1 mph N/A   Scattered Clouds
3:35 PM 78.3 °F 48.4 °F 35% 30.01 in 10.0 mi WNW 8.1 mph 19.6 mph N/A   Scattered Clouds
3:55 PM 78.4 °F 48.7 °F 35% 30.00 in 10.0 mi WNW 6.9 mph - N/A   Clear
4:15 PM 78.3 °F 47.5 °F 34% 29.99 in 10.0 mi WNW 10.4 mph 17.3 mph N/A   Clear
4:35 PM 79.3 °F 48.2 °F 33% 29.98 in 10.0 mi West 8.1 mph - N/A   Clear
4:55 PM 78.6 °F 48.2 °F 34% 29.98 in 10.0 mi WNW 9.2 mph - N/A   Clear
5:15 PM 78.8 °F 48.9 °F 35% 29.98 in 10.0 mi WNW 6.9 mph - N/A   Scattered Clouds
5:35 PM 78.6 °F 48.7 °F 35% 29.97 in 7.0 mi WNW 9.2 mph - N/A   Clear
5:55 PM 78.3 °F 49.1 °F 36% 29.97 in 10.0 mi WNW 6.9 mph - N/A   Clear
6:15 PM 77.4 °F 49.8 °F 38% 29.98 in 10.0 mi WNW 8.1 mph - N/A   Clear
6:35 PM 77.4 °F 51.1 °F 40% 29.98 in 10.0 mi WNW 4.6 mph - N/A   Clear
6:55 PM 76.3 °F 52.0 °F 43% 29.98 in 10.0 mi West 3.5 mph - N/A   Clear
7:15 PM 75.9 °F 53.1 °F 45% 29.97 in 10.0 mi WNW 3.5 mph - N/A   Clear
7:35 PM 75.0 °F 52.3 °F 45% 29.96 in 10.0 mi WNW 3.5 mph - N/A   Scattered Clouds
7:55 PM 74.3 °F 51.8 °F 45% 29.96 in 10.0 mi West 3.5 mph - N/A   Clear
8:15 PM 72.9 °F 52.9 °F 49% 29.96 in 10.0 mi WSW 4.6 mph - N/A   Clear
8:35 PM 70.3 °F 55.8 °F 60% 29.96 in 10.0 mi SSW 5.8 mph - N/A   Clear
8:55 PM 72.5 °F 53.8 °F 52% 29.96 in 10.0 mi WSW 4.6 mph - N/A   Clear
9:15 PM 69.6 °F 55.0 °F 60% 29.97 in 10.0 mi South 4.6 mph - N/A   Clear
9:35 PM 68.9 °F 55.2 °F 62% 29.96 in 10.0 mi SSW 5.8 mph - N/A   Clear
9:55 PM 66.9 °F 55.8 °F 67% 29.96 in 10.0 mi South 5.8 mph - N/A   Clear
10:15 PM 66.2 °F 56.5 °F 71% 29.95 in 10.0 mi South 6.9 mph - N/A   Mostly Cloudy
10:35 PM 66.7 °F 57.0 °F 71% 29.94 in 10.0 mi South 6.9 mph - N/A   Overcast
10:55 PM 67.3 °F 56.5 °F 68% 29.95 in 10.0 mi South 3.5 mph - N/A   Overcast
11:15 PM 67.1 °F 57.4 °F 71% 29.94 in 10.0 mi SSW 8.1 mph - N/A Rain Rain
11:35 PM 66.6 °F 57.4 °F 72% 29.93 in 10.0 mi South 10.4 mph - N/A Thunderstorm Overcast
11:55 PM 66.6 °F 57.0 °F 71% 29.92 in 10.0 mi South 9.2 mph - N/A   Overcast